Вернуться в каталог

STARLINK-31564

АктивенСвязьVLEO
NORAD 59526·PAYLOAD·🇺🇸 United States

Запущен Apr 17, 2024 с Cape Canaveral Space Force Station

Loading…

Ближайшие Пролёты (ближайшие 24 часа)

TLE

СвежийSource: CelesTrak SupGP

Эпоха: Sep 14, 2026, 22:50 UTC

1 59526C 24073R   26257.95187500 -.00012217  00000+0 -44257-3 0  2576
2 59526  43.0009 328.8778 0001434 263.5609 116.3368 15.27580409    11

Отслеживайте STARLINK-31564 в реальном времени с AllMySat

Download on the App Store